Location: La Silve
(44.2414°N, 5.8889°E)
Time: 09:53:15
(UTC+00:00)

CZ-2D R/B - Pass Details

Date: 01 December 2020
Orbit: 520 x 538 km, 97.4° (Epoch: 25 January)

Event Time Altitude Azimuth Distance (km) Brightness Sun altitude
Rises 17:48:30 0° 164° (SSE) 2,645 6.8 -19.1°
Reaches altitude 10° 17:50:35 10° 163° (SSE) 1,764 5.8 -19.4°
Maximum altitude 17:54:23 81° 76° (ENE) 541 3.1 -20.1°
Drops below altitude 10° 17:58:15 10° 350° (N) 1,790 5.9 -20.8°
Sets 18:00:23 0° 349° (N) 2,689 6.9 -21.2°
